Find Local Weather

World > North America > United States > Illinois

Barrington, Illinois Regional Weather

Lat: 42.15N, Lon: 88.13W
Wx Zone: ILZ006
Feedback
Expires:201811140700;;276131
ASUS43 KLOT 140608
RWRIL 

ILLINOIS REGIONAL WEATHER ROUNDUP
NATIONAL WEATHER SERVICE CHICAGO/ROMEOVILLE IL
1200 AM CST WED NOV 14 2018

NOTE: "FAIR" INDICATES FEW OR NO CLOUDS BELOW 12,000 FEET WITH NO
SIGNIFICANT WEATHER AND/OR OBSTRUCTIONS TO VISIBILITY.

* THESE STATIONS ARE NOT UNDER NWS QUALITY CONTROL. THEY ALSO MAY NOT
  REPORT WEATHER SUCH AS PRECIPITATION OR FOG.


ILZ005-006-012>014-019>023-140700-
NORTHEAST ILLINOIS
  
CITY           SKY/WX    TMP DP  RH WIND       PRES   REMARKS
CHICAGO-OHARE  FAIR      21  11  65 W6        30.50R WCI  13          
6HR MIN TEMP:  21; 6HR MAX TEMP:  26;                                

CHICAGO-MIDWAY FAIR      22  11  62 W6        30.51R WCI  14          
6HR MIN TEMP:  21; 6HR MAX TEMP:  26;                                

AURORA         FAIR      16  10  77 W6        30.51R WCI   7          
6HR MIN TEMP:  15; 6HR MAX TEMP:  21;                                

LANSING*       FAIR      19  12  73 W5        30.52R WCI  12          
JOLIET*        FAIR      21  14  74 CALM      30.52R                  
WAUKEGAN       FAIR      18  10  71 NW3       30.48R                  
6HR MIN TEMP:  17; 6HR MAX TEMP:  20;                                

DUPAGE AIRPORT FAIR      17  10  74 W6        30.50R WCI   9          
6HR MIN TEMP:  16; 6HR MAX TEMP:  22;                                

KANKAKEE*      FAIR      18  12  77 W6        30.53R WCI   9          
WHEELING       FAIR      22   9  57 NW6       30.51R WCI  14          
6HR MIN TEMP:  22; 6HR MAX TEMP:  26;                                

MORRIS*        FAIR      17  13  84 W6        30.52R WCI   8          
ROMEOVILLE*      N/A     18  13  80 W5        30.52R WCI  11          
NORTHERLY ISL    N/A     25  12  58 W5          N/A  WCI  19          
$$


SKY/WX - Weather  TMP - Temperature  DP - Dew Point  RH - Relative Humidity
WIND - Wind Direction/Speed PRES - Barometric Pressure